EW5682 Weather Reports


time (UTC)temp
F
wind
direction
speed
knots
gust
knots
rain 1hr
in
rain 24hr
in
rain mn
in
humidity
%
barometer
mb
20260506203530 49 340 0.0 2.6 0.00 0.73 0.61 88 1012.7
20260506203030 49 300 0.0 2.6 0.00 0.73 0.61 88 1012.7
20260506202530 49 275 0.0 4.3 0.00 0.73 0.61 88 1012.7
20260506202030 49 238 0.0 4.3 0.00 0.73 0.61 88 1012.6
20260506201528 49 17 0.0 1.7 0.00 0.73 0.61 88 1012.6
20260506201023 49 30 0.0 0.9 0.00 0.73 0.61 88 1012.6
20260506200515 49 28 0.0 0.9 0.00 0.73 0.61 88 1012.6
20260506200005 49 15 0.0 0.9 0.00 0.80 0.61 88 1012.5
20260506195504 49 15 0.0 1.7 0.00 0.80 0.61 88 1012.5
20260506195002 49 311 0.0 2.6 0.00 0.80 0.61 88 1012.5
20260506194502 49 311 0.0 2.6 0.00 0.80 0.61 88 1012.5
20260506194003 49 336 0.0 2.6 0.00 0.80 0.61 88 1012.4
20260506193600 49 103 0.0 1.7 0.00 0.80 0.61 88 1012.3
20260506193104 49 336 0.0 1.7 0.00 0.80 0.61 88 1012.2
20260506192555 49 327 0.0 2.6 0.00 0.80 0.61 88 1012.2
20260506192054 49 327 0.0 2.6 0.00 0.80 0.61 88 1012.2
20260506191546 49 327 0.0 2.6 0.00 0.80 0.61 88 1012.1
20260506191046 49 53 0.0 1.7 0.00 0.80 0.61 88 1012.1
20260506190537 49 51 0.0 3.5 0.00 0.80 0.61 88 1012.0
20260506190035 49 334 0.0 3.5 0.00 0.80 0.61 88 1012.0
20260506185533 49 334 0.0 2.6 0.00 0.83 0.61 88 1012.0
20260506185031 49 69 0.0 1.7 0.00 0.83 0.61 88 1011.9
20260506184531 49 296 0.0 3.5 0.00 0.83 0.61 88 1011.9
20260506184032 49 305 0.9 3.5 0.00 0.83 0.61 88 1011.9
20260506183529 49 323 0.0 3.5 0.00 0.83 0.61 88 1011.8
20260506183029 50 44 0.0 2.6 0.00 0.83 0.61 88 1011.8
20260506182527 50 141 0.0 0.9 0.00 0.83 0.61 88 1011.8
20260506182027 50 138 0.0 2.6 0.00 0.83 0.61 88 1011.7
20260506181528 50 138 0.0 2.6 0.00 0.83 0.61 88 1011.5
20260506181027 50 53 0.0 1.7 0.00 0.83 0.61 87 1011.5
20260506180525 50 69 0.0 2.6 0.00 0.83 0.61 87 1011.4
20260506180025 50 311 0.0 2.6 0.00 0.83 0.61 87 1011.3
20260506175525 50 323 0.0 3.5 0.00 0.84 0.61 87 1011.3
20260506175027 50 63 0.9 3.5 0.00 0.84 0.61 87 1011.2
20260506174525 50 350 0.0 2.6 0.00 0.84 0.61 87 1011.1
20260506174024 50 13 0.0 2.6 0.00 0.84 0.61 87 1011.1
20260506173523 50 302 0.0 2.6 0.00 0.84 0.61 87 1011.1
20260506173016 50 15 0.0 1.7 0.00 0.84 0.61 87 1011.0
20260506172516 50 40 0.0 1.7 0.00 0.84 0.61 87 1011.0
20260506172012 50 300 0.0 0.9 0.00 0.84 0.61 88 1010.9
20260506171510 50 320 0.0 0.9 0.00 0.84 0.61 88 1010.9
20260506171007 50 320 0.0 0.9 0.00 0.84 0.61 88 1010.9
20260506170507 50 320 0.0 0.9 0.00 0.84 0.61 88 1010.9
20260506170007 50 320 0.0 0.9 0.00 0.84 0.61 88 1010.8
20260506165508 50 320 0.0 0.9 0.00 0.84 0.61 88 1010.8
20260506165009 50 320 0.0 0.9 0.00 0.84 0.61 88 1010.8
20260506164508 50 320 0.0 1.7 0.00 0.84 0.61 88 1010.8
20260506164008 50 320 0.0 4.3 0.00 0.84 0.61 88 1010.8
20260506163507 50 311 0.0 4.3 0.00 0.84 0.61 88 1010.7
20260506163017 50 34 0.0 0.9 0.00 0.84 0.61 88 1010.7
20260506162504 50 70 0.0 1.7 0.00 0.84 0.61 88 1010.7
20260506162003 51 70 0.0 1.7 0.00 0.84 0.61 88 1010.7
20260506161504 51 313 0.0 1.7 0.00 0.84 0.61 88 1010.7
20260506161004 51 104 0.0 2.6 0.00 0.84 0.61 88 1010.7
20260506160507 51 326 0.0 2.6 0.00 0.84 0.61 88 1010.7
20260506160007 51 331 0.0 1.7 0.00 0.84 0.61 88 1010.7
20260506155502 51 74 0.0 3.5 0.00 0.84 0.61 88 1010.6
20260506155001 51 355 0.0 3.5 0.00 0.84 0.61 88 1010.6
20260506154502 50 22 0.0 4.3 0.00 0.84 0.61 88 1010.6
20260506154005 50 76 1.7 4.3 0.00 0.84 0.61 88 1010.6
20260506153501 50 83 0.0 6.1 0.00 0.84 0.61 88 1010.5
20260506153002 50 96 0.9 7.0 0.00 0.84 0.61 88 1010.5
20260506152501 50 275 1.7 7.0 0.00 0.84 0.61 88 1010.5
20260506152001 50 59 1.7 7.0 0.00 0.84 0.61 88 1010.5
20260506151502 51 76 0.9 5.2 0.00 0.84 0.61 88 1010.4
20260506151001 51 304 1.7 7.8 0.00 0.84 0.61 88 1010.4
20260506150502 50 80 0.9 7.8 0.00 0.84 0.61 88 1010.4
20260506150002 50 9 1.7 5.2 0.00 0.84 0.61 88 1010.4
20260506145505 51 336 0.9 3.5 0.00 0.84 0.61 88 1010.4
20260506145101 50 323 0.9 3.5 0.00 0.84 0.61 88 1010.4
20260506144555 50 341 0.9 6.1 0.00 0.84 0.61 88 1010.4
20260506144051 50 302 0.9 6.1 0.00 0.84 0.61 88 1010.4
20260506143550 50 321 0.9 5.2 0.00 0.84 0.61 88 1010.4
20260506143053 50 302 0.9 6.1 0.00 0.84 0.61 87 1010.4
20260506142540 50 333 0.9 4.3 0.01 0.84 0.61 87 1010.3
20260506142034 50 31 0.0 4.3 0.01 0.84 0.61 87 1010.4
20260506141535 50 323 0.9 4.3 0.01 0.84 0.61 87 1010.4
20260506141031 50 303 0.9 4.3 0.01 0.84 0.61 87 1010.5
20260506140525 50 11 0.0 5.2 0.01 0.84 0.61 86 1010.5
20260506140018 50 323 0.0 7.0 0.01 0.84 0.61 86 1010.5
20260506135510 50 83 0.9 7.0 0.01 0.84 0.61 86 1010.5
20260506135013 50 216 0.0 3.5 0.01 0.84 0.61 86 1010.4
20260506134507 50 329 0.9 7.0 0.01 0.84 0.61 86 1010.4
20260506134004 49 351 0.0 7.0 0.01 0.84 0.61 86 1010.5
20260506133501 49 317 0.9 5.2 0.01 0.84 0.61 86 1010.4
20260506133002 49 266 0.9 7.0 0.01 0.84 0.61 86 1010.5
20260506132609 49 267 0.9 7.0 0.00 0.83 0.61 86 1010.4
20260506132057 49 340 0.0 7.0 0.00 0.83 0.61 86 1010.5
20260506131553 49 299 1.7 5.2 0.00 0.83 0.61 86 1010.4
20260506131044 49 336 0.0 5.2 0.00 0.83 0.61 86 1010.3
20260506130544 50 294 1.7 6.1 0.00 0.83 0.61 86 1010.3
20260506130041 50 315 0.9 4.3 0.00 0.83 0.61 86 1010.2
20260506125542 50 66 0.9 5.2 0.00 0.83 0.61 86 1010.2
20260506125033 51 345 0.0 3.5 0.00 0.83 0.61 85 1010.1
20260506124529 51 72 0.0 3.5 0.00 0.83 0.61 85 1010.0
20260506124027 51 235 1.7 4.3 0.00 0.83 0.61 85 1010.0
20260506123525 51 315 0.9 7.0 0.01 0.83 0.61 85 1009.9
20260506123024 50 313 2.6 7.0 0.01 0.83 0.61 85 1009.9
20260506122523 51 342 1.7 7.8 0.01 0.83 0.61 85 1009.9
20260506122017 51 338 2.6 7.8 0.02 0.83 0.61 85 1009.9
20260506121511 50 323 0.9 6.1 0.02 0.83 0.61 85 1009.9
20260506121005 50 69 0.9 6.1 0.02 0.83 0.61 85 1009.8
20260506120503 51 326 2.6 7.8 0.02 0.83 0.61 85 1009.8
20260506120002 51 281 0.9 7.8 0.02 0.83 0.61 85 1009.7
20260506115506 51 325 1.7 7.8 0.02 0.83 0.61 84 1009.5
20260506115002 51 336 0.9 5.2 0.02 0.83 0.61 84 1009.5
20260506114504 51 304 2.6 5.2 0.02 0.83 0.61 85 1009.5
20260506114003 51 313 0.9 4.3 0.01 0.83 0.60 85 1009.5
20260506113502 51 329 0.0 7.0 0.01 0.83 0.60 84 1009.6
20260506113004 51 307 1.7 7.0 0.01 0.83 0.60 84 1009.5
20260506112503 51 355 1.7 7.0 0.01 0.83 0.60 84 1009.5
20260506112002 51 331 1.7 7.8 0.00 0.82 0.59 83 1009.4
20260506111559 51 333 2.6 7.8 0.00 0.82 0.59 84 1009.4
20260506111059 51 311 2.6 7.0 0.01 0.82 0.59 83 1009.4
20260506110555 51 317 1.7 7.8 0.01 0.82 0.59 82 1009.4
20260506110056 51 331 1.7 7.8 0.01 0.82 0.59 82 1009.4
20260506105548 51 297 1.7 4.3 0.02 0.82 0.59 81 1009.4
20260506105042 51 44 0.9 4.3 0.02 0.82 0.59 80 1009.4
20260506104534 51 82 0.0 5.2 0.02 0.82 0.59 81 1009.4
20260506104032 51 321 0.9 5.2 0.02 0.82 0.59 80 1009.4
20260506103527 51 346 0.9 5.2 0.02 0.82 0.59 80 1009.5
20260506103027 51 89 1.7 7.0 0.02 0.82 0.59 79 1009.4
20260506102522 51 308 1.7 4.3 0.02 0.82 0.59 79 1009.3
20260506102010 50 306 0.0 4.3 0.02 0.82 0.59 79 1009.3
20260506101503 50 310 1.7 4.3 0.03 0.82 0.59 79 1009.3
20260506101019 50 312 0.9 4.3 0.02 0.81 0.57 79 1009.3
20260506100512 50 355 0.0 4.3 0.02 0.81 0.57 79 1009.2
20260506100001 50 311 0.0 4.3 0.02 0.81 0.57 79 1009.2
20260506095559 50 311 0.0 4.3 0.02 0.80 0.56 79 1009.1
20260506095045 50 145 0.9 3.5 0.02 0.80 0.56 79 1009.2
20260506094552 50 39 0.9 3.5 0.02 0.80 0.56 79 1009.2
20260506094032 50 316 0.9 3.5 0.02 0.80 0.56 79 1009.1
20260506093532 50 315 0.0 4.3 0.03 0.80 0.56 79 1009.1
20260506093030 50 319 0.9 4.3 0.02 0.80 0.56 79 1009.0
20260506092525 50 122 0.9 3.5 0.02 0.80 0.56 79 1009.0
20260506092026 49 318 0.0 3.5 0.03 0.80 0.56 79 1009.0
20260506091524 49 332 0.9 3.5 0.03 0.79 0.56 79 1009.0
20260506091017 49 315 0.0 3.5 0.03 0.79 0.56 79 1009.0
20260506090515 49 315 0.0 3.5 0.03 0.79 0.56 79 1009.0
20260506090009 49 315 0.9 3.5 0.03 0.79 0.56 79 1008.9
20260506085502 49 289 0.0 4.3 0.03 0.78 0.55 79 1008.9
20260506085003 49 290 0.9 4.3 0.03 0.78 0.55 79 1008.9
20260506084501 49 317 0.0 3.5 0.04 0.78 0.55 79 1008.9
20260506084058 49 317 0.0 5.2 0.04 0.78 0.55 79 1008.9
20260506083549 49 311 0.9 6.1 0.03 0.77 0.54 79 1008.7
20260506083046 49 311 0.9 4.3 0.03 0.77 0.54 79 1008.7
20260506082548 49 330 0.0 4.3 0.04 0.77 0.54 79 1008.6
20260506082043 49 95 0.9 5.2 0.03 0.76 0.54 79 1008.6
20260506081539 49 292 0.0 5.2 0.03 0.76 0.53 79 1008.5
20260506081035 49 317 0.9 5.2 0.03 0.76 0.53 79 1008.5
20260506080532 49 73 1.7 5.2 0.03 0.76 0.53 79 1008.5
20260506073504 49 198 1.7 7.0 0.03 0.74 0.51 79 1008.3
20260506073003 48 299 0.9 5.2 0.03 0.74 0.51 79 1008.2
20260506072602 48 86 1.7 7.0 0.02 0.73 0.50 79 1008.1
20260506072055 48 350 1.7 7.0 0.02 0.73 0.50 79 1008.1
20260506071548 48 308 0.9 4.3 0.02 0.72 0.50 79 1008.1
20260506071042 48 144 0.0 5.2 0.02 0.72 0.50 79 1008.1
20260506070536 48 294 0.9 7.8 0.02 0.72 0.50 79 1008.1
20260506062502 48 348 0.9 2.6 0.03 0.71 0.48 78 1007.8
20260506062002 48 337 0.0 3.5 0.03 0.71 0.48 78 1007.8
20260506061503 48 355 0.0 4.3 0.02 0.70 0.47 79 1007.8
20260506061002 48 340 0.9 4.3 0.02 0.70 0.47 79 1007.9
20260506060502 48 327 1.7 4.3 0.03 0.70 0.47 79 1007.7
20260506051013 48 329 0.0 2.6 0.06 0.68 0.45 79 1007.8
20260506050513 48 329 0.0 3.5 0.06 0.67 0.44 79 1007.8
20260506045001 48 303 0.0 2.6 0.06 0.66 0.43 80 1007.8
20260506044504 48 311 0.0 2.6 0.06 0.65 0.43 80 1007.8
20260506044002 48 331 0.9 2.6 0.06 0.65 0.43 80 1007.7
20260506043502 48 250 0.0 2.6 0.06 0.65 0.42 80 1007.7
20260506043002 48 250 0.0 5.2 0.07 0.65 0.42 80 1007.7
20260506042557 48 246 0.0 5.2 0.06 0.63 0.40 80 1007.7
20260506042055 48 263 0.0 2.6 0.06 0.63 0.40 80 1007.7
20260506041550 48 329 0.9 3.5 0.06 0.62 0.39 80 1007.7
20260506041044 48 340 0.0 3.5 0.07 0.62 0.39 80 1007.7
20260506040540 48 325 0.0 3.5 0.07 0.61 0.39 80 1007.7
20260506040055 48 306 0.9 3.5 0.08 0.61 0.39 80 1007.7
20260506035533 48 327 0.0 3.5 0.09 0.61 0.38 80 1007.8
20260506035023 48 321 0.9 3.5 0.08 0.60 0.37 80 1007.8
20260506034515 48 295 0.9 6.1 0.09 0.60 0.37 80 1007.9
20260506034007 48 132 0.0 6.1 0.09 0.59 0.36 80 1007.9
20260506033505 48 154 0.9 5.2 0.09 0.57 0.35 80 1007.9
20260506033002 48 345 0.9 5.2 0.09 0.56 0.35 80 1007.9
20260506032502 48 322 0.9 3.5 0.09 0.56 0.34 80 1007.9
20260506032103 48 316 0.0 3.5 0.09 0.56 0.34 80 1007.9
20260506031600 48 316 0.9 3.5 0.09 0.56 0.33 80 1008.0
20260506031050 48 313 0.9 3.5 0.09 0.55 0.32 80 1008.0
20260506030538 48 315 0.0 4.3 0.09 0.54 0.31 80 1008.0
20260506030038 48 300 0.9 4.3 0.09 0.54 0.31 80 1008.0
20260506025533 48 360 0.0 7.0 0.09 0.52 0.28 80 1008.1
20260506025031 48 322 0.0 4.3 0.09 0.51 0.28 80 1008.1
20260506024522 48 303 0.9 4.3 0.08 0.50 0.28 80 1008.2
20260506024015 48 82 0.9 4.3 0.08 0.50 0.28 80 1008.2
20260506023512 48 348 0.0 4.3 0.06 0.49 0.26 80 1008.2
20260506023011 48 298 0.0 7.0 0.07 0.49 0.26 80 1008.1
20260506022506 48 63 0.9 2.6 0.06 0.47 0.24 80 1008.2
20260506022008 48 323 0.0 4.3 0.06 0.47 0.24 80 1008.3
20260506021506 48 355 0.9 5.2 0.06 0.46 0.24 80 1008.2
20260506021005 48 28 0.9 5.2 0.06 0.46 0.23 80 1008.2
20260506020558 48 92 0.9 4.3 0.06 0.45 0.22 81 1008.2
20260506020101 48 326 0.0 3.5 0.05 0.44 0.21 81 1008.3
20260506015553 48 294 0.0 4.3 0.04 0.43 0.20 81 1008.3
20260506015047 48 65 1.7 4.3 0.04 0.43 0.20 81 1008.3
20260506014545 49 300 0.0 3.5 0.04 0.43 0.20 80 1008.3
20260506014042 49 319 0.0 5.2 0.05 0.43 0.20 80 1008.3
20260506013537 49 303 0.0 5.2 0.05 0.42 0.19 80 1008.3
20260506013034 49 309 0.9 3.5 0.05 0.41 0.18 80 1008.3
20260506012533 49 355 0.0 3.5 0.05 0.41 0.18 80 1008.3
20260506012032 49 323 0.0 3.5 0.06 0.41 0.18 80 1008.3
20260506011530 49 55 0.0 3.5 0.07 0.41 0.18 80 1008.4
20260506011026 49 304 0.0 3.5 0.07 0.40 0.17 81 1008.4
20260506010523 49 311 0.0 2.6 0.06 0.39 0.17 81 1008.4
20260506010020 49 293 0.0 2.6 0.07 0.39 0.17 81 1008.4
20260506005513 49 322 0.9 4.3 0.08 0.39 0.17 81 1008.4
20260506005009 49 314 0.9 4.3 0.07 0.39 0.16 81 1008.4
20260506004511 49 71 0.9 4.3 0.06 0.38 0.15 81 1008.5
20260506004009 49 267 1.7 4.3 0.07 0.38 0.15 81 1008.5
20260506003507 49 70 0.0 4.3 0.07 0.37 0.14 81 1008.5
20260506003004 49 315 0.0 3.5 0.07 0.36 0.13 81 1008.5
20260506002601 49 324 0.0 3.5 0.07 0.36 0.13 81 1008.6
20260506002057 49 333 0.0 4.3 0.06 0.35 0.12 81 1008.6
20260506001555 49 316 0.9 4.3 0.06 0.34 0.11 81 1008.7
20260506001050 49 333 0.9 4.3 0.05 0.33 0.10 81 1008.8
20260506000549 49 33 0.9 5.2 0.05 0.32 0.09 81 1008.8
20260506000049 49 296 0.0 5.2 0.06 0.32 0.09 81 1008.8
20260505235545 49 70 0.9 3.5 0.05 0.31 0.09 81 1008.9
20260505235043 49 260 0.9 3.5 0.05 0.31 0.09 81 1008.9
20260505234547 49 319 0.9 3.5 0.05 0.31 0.09 81 1009.0
20260505234040 49 323 0.9 3.5 0.05 0.31 0.08 81 1009.0
20260505233538 49 341 0.0 4.3 0.05 0.30 0.07 81 1009.0
20260505233041 49 310 0.9 4.3 0.05 0.30 0.07 81 1009.0
20260505232535 50 302 0.0 2.6 0.04 0.28 0.06 81 1009.1
20260505232033 50 301 0.0 4.3 0.03 0.28 0.06 81 1009.1
20260505231544 50 307 0.9 7.8 0.04 0.28 0.06 81 1009.1
20260505231029 50 72 0.9 7.8 0.05 0.28 0.06 81 1009.1
20260505230526 50 324 0.0 4.3 0.04 0.28 0.05 81 1009.1
20260505230031 50 302 0.9 4.3 0.03 0.27 0.04 81 1009.1
20260505225530 50 308 1.7 4.3 0.05 0.27 0.04 81 1009.2
20260505225024 50 292 0.9 3.5 0.05 0.27 0.04 81 1009.2
20260505224525 50 45 0.0 5.2 0.05 0.26 0.03 81 1009.2
20260505224020 50 310 0.9 2.6 0.06 0.26 0.03 81 1009.2
20260505223521 50 360 0.0 3.5 0.06 0.25 0.02 81 1009.2
20260505223017 50 331 0.0 3.5 0.06 0.25 0.02 81 1009.2
20260505222517 50 5 0.0 3.5 0.06 0.25 0.02 81 1009.2
20260505222017 50 42 0.0 4.3 0.07 0.25 0.02 82 1009.2
20260505221517 50 276 0.0 4.3 0.07 0.24 0.02 81 1009.2
20260505221013 50 272 0.0 3.5 0.06 0.24 0.01 82 1009.2
20260505220515 50 336 0.9 3.5 0.07 0.24 0.01 82 1009.2
20260505220011 50 43 0.0 7.0 0.07 0.23 0.00 82 1009.3
20260505215503 50 31 0.0 4.3 0.07 0.22 0.22 82 1009.3
20260505215002 50 88 0.9 4.3 0.08 0.22 0.22 82 1009.3
20260505214502 50 339 0.9 4.3 0.07 0.21 0.21 82 1009.3
20260505214057 50 41 0.0 3.5 0.06 0.20 0.20 82 1009.3
20260505213555 50 328 0.0 3.5 0.06 0.20 0.20 82 1009.4
20260505213046 50 12 0.0 3.5 0.06 0.19 0.19 82 1009.4
20260505212542 50 44 0.0 2.6 0.06 0.19 0.19 82 1009.4
20260505212038 50 80 0.9 2.6 0.06 0.18 0.18 82 1009.5
20260505211535 50 93 0.0 4.3 0.05 0.17 0.17 82 1009.5
20260505211030 50 59 0.0 4.3 0.06 0.17 0.17 83 1009.5
20260505210528 50 338 0.0 2.6 0.06 0.17 0.17 83 1009.6
20260505210026 50 95 0.0 6.1 0.05 0.16 0.16 83 1009.6
20260505205515 50 84 1.7 6.1 0.05 0.15 0.15 83 1009.6
20260505205011 51 52 0.9 6.1 0.05 0.14 0.14 83 1009.6
20260505204510 51 342 0.0 4.3 0.05 0.14 0.14 83 1009.7
20260505204003 51 313 0.9 4.3 0.05 0.14 0.14 83 1009.7